Location: Kosice
(48.7170°N, 21.2500°E)
Time: 02:32:44
(UTC+02:00)

ISS - Pass Details

Date: 01 April 2019
Orbit: 408 x 410 km, 51.6° (Epoch: 23 April)

Event Time Altitude Azimuth Distance (km) Brightness Sun altitude
Rises 21:47:18 0° 290° (WNW) 2,339 1.2 -24.9°
Reaches altitude 10° 21:49:27 10° 284° (WNW) 1,474 -0.2 -25.1°
Enters shadow 21:50:55 23° 272° (W) 925 -1.6 -25.3°
